Date String (YYYY-MM-DD hh:mm:ss) UTC,Instrument flags,absolute air pressure of the measurement (hPa),sample flow rate (lpm),inlet stack bypass flow (lpm),air temperature of the measurement (°C),ambient temperature measured by the external sensor (°C),aerosol sample conditioner tube jacket temperature (°C),OPC LED temperature (°C),internal box temperature (°C),relative humidity of the measurement (%),span deviation,mass concentration of particles derived from Lorenz-Mie calculation of OPC scattering (μg/m³),mass concentration of particles derived from Lorenz-Mie calculation of OPC scattering (μg/m³),mass concentration of particles derived from Lorenz-Mie calculation of OPC scattering (μg/m³)
DateTimeUTC,F1_M11,P_M11,Q1_M11,Q2_M11,T1_M11,T2_M11,T3_M11,T4_M11,T5_M11,U1_M11,ZSPAN_M11,X2_M11,X0_M11,X1_M11
2024-02-08 03:00:00,SystemResetWarning,0810.5,5.00,000.00,019.4,018.8,000.0,027.8,021.0,10.5,0000.0,0000.35,0000.57,0000.22
2024-02-08 03:01:00,SystemResetWarning,0810.5,5.00,000.00,019.4,018.8,000.0,027.8,021.0,10.7,0000.0,0000.33,0000.53,0000.22
2024-02-08 03:02:00,SystemResetWarning,0810.6,5.01,000.00,019.4,018.7,000.0,027.7,021.0,10.9,0000.0,0000.32,0000.49,0000.22
2024-02-08 03:03:00,SystemResetWarning,0810.6,5.00,000.00,019.4,018.7,000.0,027.7,021.0,11.2,0000.0,0000.35,0000.56,0000.22
2024-02-08 03:04:00,SystemResetWarning,0810.7,4.99,000.00,019.4,018.7,000.0,027.7,021.0,11.7,0000.0,0000.35,0000.58,0000.22
2024-02-08 03:05:00,SystemResetWarning,0810.7,4.99,000.00,019.4,018.7,000.0,027.7,020.9,11.5,0000.0,0000.36,0000.60,0000.22
2024-02-08 03:06:00,SystemResetWarning,0810.7,5.00,000.00,019.4,018.7,000.0,027.7,020.9,11.7,0000.0,0000.36,0000.61,0000.23
2024-02-08 03:07:00,SystemResetWarning,0810.7,5.00,000.00,019.4,018.7,000.0,027.7,020.9,10.8,0000.0,0000.36,0000.61,0000.23
2024-02-08 03:08:00,SystemResetWarning,0810.8,5.00,000.00,019.4,018.7,000.0,027.7,020.9,10.7,0000.0,0000.33,0000.55,0000.23
2024-02-08 03:09:00,SystemResetWarning,0810.8,5.00,000.00,019.4,018.7,000.0,027.7,020.9,11.0,0000.0,0000.33,0000.52,0000.23
2024-02-08 03:10:00,SystemResetWarning,0810.7,5.00,000.00,019.4,018.7,000.0,027.7,020.9,10.8,0000.0,0000.33,0000.52,0000.23
2024-02-08 03:11:00,SystemResetWarning,0810.7,4.99,000.00,019.4,018.7,000.0,027.7,020.9,10.6,0000.0,0000.32,0000.50,0000.23
2024-02-08 03:12:00,SystemResetWarning,0810.7,4.99,000.00,019.4,018.7,000.0,027.6,020.9,10.9,0000.0,0000.32,0000.50,0000.23
2024-02-08 03:13:00,SystemResetWarning,0810.7,5.00,000.00,019.4,018.7,000.0,027.6,020.9,10.9,0000.0,0000.32,0000.49,0000.23
2024-02-08 03:14:00,SystemResetWarning,0810.7,5.01,000.00,019.4,018.7,000.0,027.6,020.9,11.5,0000.0,0000.31,0000.46,0000.23
2024-02-08 03:15:00,SystemResetWarning,0810.7,5.01,000.00,019.4,018.7,000.0,027.6,020.9,11.7,0000.0,0000.29,0000.44,0000.24
2024-02-08 03:16:00,SystemResetWarning,0810.6,5.00,000.00,019.4,018.7,000.0,027.6,020.9,11.5,0000.0,0000.29,0000.43,0000.23
2024-02-08 03:17:00,SystemResetWarning,0810.6,5.00,000.00,019.4,018.7,000.0,027.6,020.9,11.5,0000.0,0000.30,0000.44,0000.23
2024-02-08 03:18:00,SystemResetWarning,0810.6,4.99,000.00,019.4,018.7,000.0,027.6,020.9,11.5,0000.0,0000.30,0000.45,0000.24
2024-02-08 03:19:00,SystemResetWarning,0810.6,5.00,000.00,019.4,018.7,000.0,027.6,020.9,11.7,0000.0,0000.30,0000.45,0000.24
2024-02-08 03:20:00,SystemResetWarning,0810.5,5.00,000.00,019.4,018.7,000.0,027.6,020.9,12.3,0000.0,0000.30,0000.46,0000.24
2024-02-08 03:21:00,SystemResetWarning,0810.5,5.00,000.00,019.4,018.7,000.0,027.6,020.9,12.1,0000.0,0000.31,0000.47,0000.24
2024-02-08 03:22:00,SystemResetWarning,0810.6,5.00,000.00,019.3,018.7,000.0,027.6,020.9,12.0,0000.0,0000.31,0000.45,0000.25
2024-02-08 03:23:00,SystemResetWarning,0810.6,5.00,000.00,019.3,018.7,000.0,027.6,020.8,11.9,0000.0,0000.32,0000.48,0000.25
2024-02-08 03:24:00,SystemResetWarning,0810.6,5.00,000.00,019.3,018.7,000.0,027.6,020.9,12.0,0000.0,0000.31,0000.47,0000.24
2024-02-08 03:25:00,SystemResetWarning,0810.6,5.00,000.00,019.3,018.7,000.0,027.6,020.9,12.2,0000.0,0000.30,0000.45,0000.24
2024-02-08 03:26:00,SystemResetWarning,0810.6,5.00,000.00,019.3,018.7,000.0,027.6,020.8,12.3,0000.0,0000.32,0000.49,0000.25
2024-02-08 03:27:00,SystemResetWarning,0810.6,5.00,000.00,019.3,018.6,000.0,027.6,020.8,12.2,0000.0,0000.32,0000.63,0000.25
2024-02-08 03:28:00,SystemResetWarning,0810.6,5.00,000.00,019.3,018.6,000.0,027.6,020.8,12.6,0000.0,0000.34,0000.80,0000.25
2024-02-08 03:29:00,SystemResetWarning,0810.6,5.00,000.00,019.3,018.6,000.0,027.6,020.8,12.6,0000.0,0000.35,0000.85,0000.24
2024-02-08 03:30:00,SystemResetWarning,0810.6,5.00,000.00,019.3,018.6,000.0,027.5,020.8,12.5,0000.0,0000.35,0000.86,0000.24
2024-02-08 03:31:00,SystemResetWarning,0810.6,5.00,000.00,019.3,018.6,000.0,027.5,020.8,11.8,0000.0,0000.37,0000.89,0000.23
2024-02-08 03:32:00,SystemResetWarning,0810.6,5.00,000.00,019.3,018.6,000.0,027.5,020.8,11.5,0000.0,0000.36,0000.87,0000.23
2024-02-08 03:33:00,SystemResetWarning,0810.6,5.00,000.00,019.3,018.6,000.0,027.5,020.7,11.6,0000.0,0000.37,0000.96,0000.22
2024-02-08 03:34:00,SystemResetWarning,0810.5,5.00,000.00,019.3,018.6,000.0,027.5,020.8,12.3,0000.0,0000.36,0000.95,0000.22
2024-02-08 03:35:00,SystemResetWarning,0810.5,5.01,000.00,019.3,018.6,000.0,027.5,020.8,12.4,0000.0,0000.37,0000.97,0000.22
2024-02-08 03:36:00,SystemResetWarning,0810.6,5.01,000.00,019.3,018.6,000.0,027.5,020.8,11.9,0000.0,0000.37,0000.97,0000.22
2024-02-08 03:37:00,SystemResetWarning,0810.5,4.99,000.00,019.2,018.6,000.0,027.5,020.8,12.3,0000.0,0000.35,0000.93,0000.22
2024-02-08 03:38:00,SystemResetWarning,0810.6,4.99,000.00,019.2,018.6,000.0,027.5,020.8,12.3,0000.0,0000.34,0000.81,0000.22
2024-02-08 03:39:00,SystemResetWarning,0810.6,5.01,000.00,019.2,018.6,000.0,027.5,020.8,12.4,0000.0,0000.33,0000.60,0000.22
2024-02-08 03:40:00,SystemResetWarning,0810.6,5.01,000.00,019.2,018.5,000.0,027.5,020.8,11.4,0000.0,0000.30,0000.52,0000.22
2024-02-08 03:41:00,SystemResetWarning,0810.6,5.00,000.00,019.2,018.5,000.0,027.5,020.7,12.0,0000.0,0000.30,0000.52,0000.22
2024-02-08 03:42:00,SystemResetWarning,0810.6,4.99,000.00,019.2,018.5,000.0,027.5,020.7,12.0,0000.0,0000.27,0000.48,0000.22
2024-02-08 03:43:00,SystemResetWarning,0810.6,5.00,000.00,019.2,018.5,000.0,027.5,020.7,12.4,0000.0,0000.28,0000.49,0000.22
2024-02-08 03:44:00,SystemResetWarning,0810.6,4.99,000.00,019.2,018.5,000.0,027.5,020.7,11.9,0000.0,0000.27,0000.40,0000.22
2024-02-08 03:45:00,SystemResetWarning,0810.6,5.00,000.00,019.2,018.5,000.0,027.5,020.7,11.8,0000.0,0000.28,0000.42,0000.22
2024-02-08 03:46:00,SystemResetWarning,0810.7,5.01,000.00,019.2,018.5,000.0,027.5,020.7,12.2,0000.0,0000.30,0000.52,0000.22
2024-02-08 03:47:00,SystemResetWarning,0810.6,5.00,000.00,019.2,018.5,000.0,027.5,020.7,12.3,0000.0,0000.30,0000.58,0000.22
2024-02-08 03:48:00,SystemResetWarning,0810.7,5.00,000.00,019.2,018.5,000.0,027.4,020.7,11.9,0000.0,0000.30,0000.63,0000.22
2024-02-08 03:49:00,SystemResetWarning,0810.7,5.00,000.00,019.2,018.5,000.0,027.4,020.7,12.0,0000.0,0000.30,0000.67,0000.22
2024-02-08 03:50:00,SystemResetWarning,0810.7,5.00,000.00,019.2,018.5,000.0,027.5,020.7,12.3,0000.0,0000.30,0000.66,0000.22
2024-02-08 03:51:00,SystemResetWarning,0810.7,5.00,000.00,019.2,018.5,000.0,027.4,020.7,12.3,0000.0,0000.31,0000.70,0000.22
2024-02-08 03:52:00,SystemResetWarning,0810.6,5.00,000.00,019.2,018.5,000.0,027.4,020.7,12.2,0000.0,0000.31,0000.70,0000.22
2024-02-08 03:53:00,SystemResetWarning,0810.6,5.00,000.00,019.2,018.5,000.0,027.4,020.7,12.6,0000.0,0000.33,0000.75,0000.22
2024-02-08 03:54:00,SystemResetWarning,0810.7,5.00,000.00,019.2,018.5,000.0,027.4,020.7,12.6,0000.0,0000.35,0000.80,0000.22
2024-02-08 03:55:00,SystemResetWarning,0810.6,5.00,000.00,019.2,018.5,000.0,027.4,020.7,12.5,0000.0,0000.34,0000.80,0000.23
2024-02-08 03:56:00,SystemResetWarning,0810.6,5.00,000.00,019.2,018.5,000.0,027.4,020.7,12.3,0000.0,0000.34,0000.78,0000.22
2024-02-08 03:57:00,SystemResetWarning,0810.6,4.99,000.00,019.2,018.5,000.0,027.4,020.6,12.2,0000.0,0000.31,0000.66,0000.23
2024-02-08 03:58:00,SystemResetWarning,0810.6,4.99,000.00,019.2,018.5,000.0,027.4,020.7,12.6,0000.0,0000.30,0000.57,0000.23
2024-02-08 03:59:00,SystemResetWarning,0810.6,5.00,000.00,019.1,018.5,000.0,027.4,020.7,12.7,0000.0,0000.30,0000.58,0000.23
